COSMOS 1823 DEB

Satellite information

Favourite Embed

Satellite Type and Status

DEBRISIN ORBIT

Key statistics

Satellite COSMOS 1823 DEB at a glance.

Uptime

13959

Days in orbit

Revolutions

≈ 12.4

Per day

Orbit

LEO

Low Earth Orbit

Inclination

73.6

Latest

Satellite identification and parameters

Extended collection of information and parameters for COSMOS 1823 DEB.

Object identification

Identified? True

Debris? True

Object name: COSMOS 1823 DEB

International designator: 1987-020EN

Object number (NORAD): 39814

Object ID (CCSDS): 39814

Country: COMMONWEALTH OF INDEPENDENT STATES (CIS)

Current information (Y/N): Y

RCS size: SMALL

Orbital parameters

Period: 115.839 minutes

Inclination: 73.6136 deg

SMA: 7871.622 km

Apoapsis: 1514.428 km

Periapsis: 1472.546 km

RAAN: 207.4776 deg

Eccentricy: 0.0026603

Argument of periapsis: 52.1486 deg

Mean anomaly: 308.196 deg

Mean motion: 12.43101035 rev/day

Mean motion (dot): 0.00000065 rev/day2

B* drag term: 0.00058989 1/REarth

Two-line elements (TLE)

Creation date: May 7, 2025, 6:46 a.m.

Reference frame: TEME

Reference center: EARTH

Epoch: May 6, 2025, 9:16 p.m. UTC

TLE line 0: 0 COSMOS 1823 DEB

TLE line 1: 1 39814U 87020EN 25126.88670821 .00000065 00000-0 58989-3 0 9991

TLE line 2: 2 39814 73.6136 207.4776 0026603 52.1486 308.1960 12.43101035927037

Live tracking on map

Real-time ground track for satellite COSMOS 1823 DEB.

In-orbit conjunctions

A list of the most updated potential collisions computed for object COSMOS 1823 DEB.

Target Orbit TCA Probability of collision Miss distance Type
COSMOS 1158 LEO 2025-01-29 00:00:44 0.0001480196 474.0 (m) PAYLOAD
COSMOS 1255 LEO 2025-01-04 15:01:28 0.0001218282 39.0 (m) PAYLOAD

Associated space launch

A satellite for the GEO-IK geodetic system

COSMOS 1823 DEB was lifted into orbit during the mission ‘Tsiklon-3 | Geo-IK 9’, on board a Tsiklon-3 space rocket.

The launch took place on Feb. 20, 1987, 4:43 a.m. from 32/2.

For more information about the launch, click the button.

Launch to space Tsiklon-3 | Geo-IK 9
Tsiklon-3 | Geo-IK 9

Agency: N/A

Status: Launch Successful

Launch date: Feb. 20, 1987, 4:43 a.m. UTC

Rocket: Tsiklon-3

Launch pad: 32/2

Location: Plesetsk Cosmodrome, Russian Federation

...

Latest news about this satellite

There are no fresh news available about this satellite. Check back as we update our databases every day.


Newsletter sign-up

Weekly statistics, charts and insights to help you stay on top of the space industry.